Meteo Giornale » Osservazioni meteo Italia » Treviso-Istrana

ore: 03:55 - Osservazioni Meteo Treviso-Istrana
Lat. 45° 41' N Lon. 12° 6' E Alt. 45 metri s.l.m.

sereno Europe/Rome

18 °C

Sereno

Temp. 24 Ore

14 °C

23 °C

Nord

0 Km/h

Dew point 16 °C

Umidità 88 %

Visibilità  10 Km

Il sole sorge alle ore 05:48

Il sole tramonta alle ore 20:47

Data e Ora Cielo e Fenomeni T °C DP °C Um. % Pres. hPa Vis. km Vento km/h
Oggi h: 03:55 sereno Sereno 18 16 88 1008 10 N 0
Oggi h: 02:55 sereno Sereno 18 16 88 1008 10 N 5.5
Oggi h: 01:55 sereno Sereno 18 16 88 1008 10 NE 7.4
Oggi h: 00:55 sereno Sereno 18 17 93 1007 10 N 0
Ieri h: 23:55 nuvoloso Nuvoloso 18 17 93 1007 10 NE 7.4
Ieri h: 22:55 nuvoloso Nuvoloso 19 17 88 1007 10 N 0
Ieri h: 21:55 nuvoloso Nuvoloso 19 18 93 1006 10 N 0
Ieri h: 20:55 nuvoloso Nuvoloso 21 18 82 1005 10 N 5.5
Ieri h: 19:55 nuvoloso Nuvoloso 22 17 73 1005 10 N 0
Ieri h: 18:55 molto_nuvoloso Molto Nuvoloso 23 17 68 1005 10 E 7.4
Ieri h: 17:55 nuvoloso Nuvoloso 23 17 68 1004 10 E 7.4
Ieri h: 16:55 sereno Sereno 23 16 64 1004 10 NE 9.3
Ieri h: 15:55 sereno Sereno 23 16 64 1005 10 NE 9.3
Ieri h: 14:55 sereno Sereno 23 15 60 1005 10 N 5.5
Ieri h: 13:55 sereno Sereno 23 15 60 1005 10 N 0
Ieri h: 12:55 sereno Sereno 23 14 56 1005 10 N 5.5
Ieri h: 11:55 sereno Sereno 23 13 53 1004 10 SO 7.4
Ieri h: 10:55 sereno Sereno 23 14 56 1004 10 N 0
Ieri h: 09:55 sereno Sereno 20 14 68 1005 10 N 0
Ieri h: 08:55 sereno Sereno 19 16 82 1005 10 NO 7.4
Ieri h: 07:55 nuvoloso Nuvoloso 18 15 82 1004 10 N 0
Ieri h: 06:55 nuvoloso Nuvoloso 15 14 93 1004 10 N 7.4
Ieri h: 05:55 sereno Sereno 15 13 87 1005 10 N 0
Ieri h: 04:55 sereno Sereno 14 13 93 1005 10 N/NE 9.3